Location: Fort Worth, Tx
(32.7431°N, 97.3695°W)
Time: 07:28:12
(UTC-05:00)

Explorer 11/Cluster Stage 4 - Pass Details

Date: 12 February 2026
Orbit: 463 x 1176 km, 28.8° (Epoch: 5 March)

Event Time Altitude Azimuth Distance (km) Brightness Sun altitude
Rises 20:47:58 0° 267° (W) 2,720 11.0 -20.6°
Reaches altitude 10° 20:50:13 10° 258° (WSW) 1,912 9.7 -21.1°
Maximum altitude 20:54:13 34° 193° (SSW) 1,103 7.4 -21.9°
Enters shadow 20:55:57 26° 155° (SSE) 1,354 7.6 -22.3°
